Weather History for KGAF - September, 2013

Change the Weather History Date:

Monday, September 23, 2013

  Actual Average Record
Temperature  
Mean Temperature 70 °F -  
Max Temperature 78 °F 66 °F 81 °F (1958)
Min Temperature 62 °F 39 °F 24 °F (1976)
Cooling Degree Days 5    
Growing Degree Days 20 (Base 50)    
Moisture  
Dew Point 53 °F    
Average Humidity 58    
Maximum Humidity 83    
Minimum Humidity 39    
Precipitation  
Precipitation 0.00 in - - ()
Sea Level Pressure  
Sea Level Pressure 29.61 in    
Wind  
Wind Speed 19 mph (South)    
Max Wind Speed 29 mph    
Max Gust Speed 36 mph    
Visibility 10 miles    
Events      
Averages and records for this station are not official NWS values.
T = Trace of Precipitation, MM = Missing Value Source: NWS Daily Summary

Daily Weather History Graph

Daily Weather History Graph

Search for Another Location

Airport or City:

Trip Planner

Search our weather history database for the weather conditions in past years. The results will help you decide how hot, cold, wet, or windy it might be!

Date:

Astronomy

Sep. 23, 2013 Rise Set
Actual Time 7:17 AM CDT 7:24 PM CDT
Civil Twilight 6:46 AM CDT 7:55 PM CDT
Nautical Twilight 6:09 AM CDT 8:32 PM CDT
Astronomical Twilight 5:32 AM CDT 9:10 PM CDT
Moon 9:34 PM CDT (9/23) 12:00 PM CDT (9/23)
Length of Visible Light 13h 09m
Length of Day
12h 06m
Waning Gibbous, 81% of the Moon is Illuminated
Sep 23
Waning Gibbous
Sep 26
Last Quarter
Oct 4
New
Oct 11
First Quarter
Oct 18
Full

Hourly Weather History & Observations

Time (CDT) Temp. Dew Point Humidity Pressure Visibility Wind Dir Wind Speed Gust Speed Precip Events Conditions
12:15 AM 66.2 °F 55.4 °F 68% 29.56 in 10.0 mi SSE 19.6 mph 25.3 mph N/A   Clear
12:35 AM 66.2 °F 53.6 °F 64% 29.56 in 10.0 mi SSE 18.4 mph 21.9 mph N/A   Clear
12:55 AM 66.2 °F 53.6 °F 64% 29.56 in 10.0 mi SSE 16.1 mph 23.0 mph N/A   Clear
1:15 AM 66.2 °F 53.6 °F 64% 29.55 in 10.0 mi SSE 18.4 mph 25.3 mph N/A   Clear
1:35 AM 66.2 °F 53.6 °F 64% 29.56 in 10.0 mi SSE 17.3 mph 23.0 mph N/A   Clear
1:55 AM 66.2 °F 53.6 °F 64% 29.56 in 10.0 mi SSE 19.6 mph 24.2 mph N/A   Clear
2:15 AM 66.2 °F 53.6 °F 64% 29.56 in 10.0 mi SSE 17.3 mph 25.3 mph N/A   Clear
2:35 AM 66.2 °F 53.6 °F 64% 29.56 in 10.0 mi SSE 18.4 mph 24.2 mph N/A   Clear
2:55 AM 66.2 °F 51.8 °F 60% 29.56 in 10.0 mi South 17.3 mph 23.0 mph N/A   Clear
3:15 AM 66.2 °F 51.8 °F 60% 29.56 in 10.0 mi SSE 19.6 mph 23.0 mph N/A   Clear
3:35 AM 64.4 °F 51.8 °F 64% 29.55 in 10.0 mi SSE 19.6 mph 24.2 mph N/A   Clear
3:55 AM 64.4 °F 51.8 °F 64% 29.55 in 10.0 mi SSE 19.6 mph 25.3 mph N/A   Clear
4:15 AM 64.4 °F 51.8 °F 64% 29.56 in 10.0 mi SSE 18.4 mph 25.3 mph N/A   Clear
4:35 AM 64.4 °F 50.0 °F 59% 29.56 in 10.0 mi South 17.3 mph 23.0 mph N/A   Clear
4:55 AM 62.6 °F 50.0 °F 63% 29.56 in 10.0 mi South 19.6 mph 24.2 mph N/A   Clear
5:15 AM 62.6 °F 50.0 °F 63% 29.57 in 10.0 mi South 18.4 mph 25.3 mph N/A   Clear
5:35 AM 62.6 °F 50.0 °F 63% 29.58 in 10.0 mi South 17.3 mph 20.7 mph N/A   Clear
5:55 AM 62.6 °F 51.8 °F 68% 29.58 in 10.0 mi South 18.4 mph 24.2 mph N/A   Clear
6:15 AM 62.6 °F 51.8 °F 68% 29.59 in 10.0 mi South 16.1 mph 21.9 mph N/A   Clear
6:35 AM 62.6 °F 51.8 °F 68% 29.59 in 10.0 mi South 18.4 mph 25.3 mph N/A   Clear
6:55 AM 62.6 °F 51.8 °F 68% 29.58 in 10.0 mi South 21.9 mph 28.8 mph N/A   Clear
7:15 AM 62.6 °F 51.8 °F 68% 29.59 in 10.0 mi South 19.6 mph 25.3 mph N/A   Clear
7:35 AM 62.6 °F 51.8 °F 68% 29.58 in 10.0 mi South 16.1 mph 27.6 mph N/A   Clear
7:55 AM 62.6 °F 51.8 °F 68% 29.59 in 10.0 mi South 17.3 mph 23.0 mph N/A   Clear
8:15 AM 62.6 °F 51.8 °F 68% 29.59 in 10.0 mi South 16.1 mph 21.9 mph N/A   Clear
8:35 AM 62.6 °F 51.8 °F 68% 29.58 in 10.0 mi South 20.7 mph 27.6 mph N/A   Clear
8:55 AM 64.4 °F 51.8 °F 64% 29.59 in 10.0 mi South 21.9 mph 32.2 mph N/A   Clear
9:15 AM 64.4 °F 51.8 °F 64% 29.60 in 10.0 mi South 27.6 mph 32.2 mph N/A   Clear
9:35 AM 64.4 °F 51.8 °F 64% 29.61 in 10.0 mi South 20.7 mph 29.9 mph N/A   Clear
9:55 AM 66.2 °F 51.8 °F 60% 29.61 in 10.0 mi South 23.0 mph 29.9 mph N/A   Clear
10:15 AM 68.0 °F 53.6 °F 60% 29.61 in 10.0 mi South 23.0 mph 28.8 mph N/A   Clear
10:35 AM 68.0 °F 53.6 °F 60% 29.61 in 10.0 mi South 19.6 mph 34.5 mph N/A   Clear
10:55 AM 68.0 °F 51.8 °F 56% 29.61 in 10.0 mi South 20.7 mph 31.1 mph N/A   Clear
11:15 AM 69.8 °F 53.6 °F 56% 29.62 in 10.0 mi South 24.2 mph 28.8 mph N/A   Clear
11:35 AM 71.6 °F 51.8 °F 50% 29.61 in 10.0 mi South 20.7 mph 31.1 mph N/A   Clear
11:55 AM 71.6 °F 51.8 °F 50% 29.61 in 10.0 mi South 21.9 mph 31.1 mph N/A   Clear
12:15 PM 73.4 °F 51.8 °F 47% 29.61 in 10.0 mi South 19.6 mph 29.9 mph N/A   Clear
12:35 PM 73.4 °F 53.6 °F 50% 29.61 in 10.0 mi SSE 23.0 mph 31.1 mph N/A   Clear
1:15 PM 75.2 °F 51.8 °F 44% 29.61 in 10.0 mi South 19.6 mph 32.2 mph N/A   Clear
1:35 PM 75.2 °F 51.8 °F 44% 29.60 in 10.0 mi South 26.5 mph 32.2 mph N/A   Clear
1:55 PM 75.2 °F 51.8 °F 44% 29.59 in 10.0 mi South 24.2 mph 32.2 mph N/A   Clear
2:15 PM 77.0 °F 51.8 °F 41% 29.59 in 10.0 mi South 24.2 mph 33.4 mph N/A   Clear
2:35 PM 77.0 °F 51.8 °F 41% 29.59 in 10.0 mi South 24.2 mph 33.4 mph N/A   Clear
2:55 PM 77.0 °F 51.8 °F 41% 29.58 in 10.0 mi South 25.3 mph 31.1 mph N/A   Clear
3:15 PM 78.8 °F 51.8 °F 39% 29.59 in 10.0 mi South 24.2 mph 34.5 mph N/A   Clear
3:35 PM 77.0 °F 51.8 °F 41% 29.58 in 10.0 mi South 25.3 mph 35.7 mph N/A   Clear
3:55 PM 77.0 °F 51.8 °F 41% 29.59 in 10.0 mi South 28.8 mph 34.5 mph N/A   Clear
4:15 PM 77.0 °F 51.8 °F 41% 29.59 in 10.0 mi South 25.3 mph 34.5 mph N/A   Clear
4:35 PM 77.0 °F 53.6 °F 44% 29.59 in 10.0 mi South 21.9 mph 35.7 mph N/A   Clear
4:55 PM 77.0 °F 51.8 °F 41% 29.59 in 10.0 mi South 25.3 mph 33.4 mph N/A   Clear
5:15 PM 77.0 °F 53.6 °F 44% 29.60 in 10.0 mi South 20.7 mph 31.1 mph N/A   Clear
5:35 PM 77.0 °F 53.6 °F 44% 29.60 in 10.0 mi SSE 27.6 mph 33.4 mph N/A   Clear
5:55 PM 77.0 °F 53.6 °F 44% 29.60 in 10.0 mi South 19.6 mph 34.5 mph N/A   Clear
6:15 PM 75.2 °F 53.6 °F 47% 29.60 in 10.0 mi South 19.6 mph 34.5 mph N/A   Clear
6:35 PM 75.2 °F 53.6 °F 47% 29.61 in 10.0 mi SSE 19.6 mph 28.8 mph N/A   Clear
6:55 PM 75.2 °F 53.6 °F 47% 29.61 in 10.0 mi SSE 21.9 mph 27.6 mph N/A   Clear
7:15 PM 73.4 °F 53.6 °F 50% 29.62 in 10.0 mi South 15.0 mph 25.3 mph N/A   Clear
7:35 PM 71.6 °F 53.6 °F 53% 29.63 in 10.0 mi South 13.8 mph 19.6 mph N/A   Clear
7:55 PM 71.6 °F 53.6 °F 53% 29.64 in 10.0 mi South 12.7 mph 20.7 mph N/A   Clear
8:15 PM 71.6 °F 53.6 °F 53% 29.65 in 10.0 mi SSW 12.7 mph 17.3 mph N/A   Clear
8:35 PM 69.8 °F 53.6 °F 56% 29.65 in 10.0 mi South 13.8 mph - N/A   Clear
8:55 PM 68.0 °F 53.6 °F 60% 29.66 in 10.0 mi South 12.7 mph - N/A   Partly Cloudy
9:15 PM 68.0 °F 53.6 °F 60% 29.66 in 10.0 mi South 16.1 mph 23.0 mph N/A   Partly Cloudy
9:35 PM 68.0 °F 51.8 °F 56% 29.67 in 10.0 mi South 10.4 mph - N/A   Partly Cloudy
9:55 PM 68.0 °F 51.8 °F 56% 29.69 in 10.0 mi SW 12.7 mph 19.6 mph N/A   Partly Cloudy
10:15 PM 64.4 °F 59.0 °F 83% 29.71 in 10.0 mi WSW 5.8 mph - N/A   Clear
10:35 PM 64.4 °F 59.0 °F 83% 29.72 in 10.0 mi West 6.9 mph - N/A   Partly Cloudy
10:55 PM 64.4 °F 59.0 °F 83% 29.73 in 10.0 mi WSW 9.2 mph - N/A   Partly Cloudy
11:15 PM 62.6 °F 57.2 °F 82% 29.74 in 10.0 mi West 10.4 mph - N/A   Partly Cloudy
11:35 PM 62.6 °F 57.2 °F 82% 29.75 in 10.0 mi West 9.2 mph - N/A   Mostly Cloudy
11:55 PM 62.6 °F 57.2 °F 82% 29.75 in 10.0 mi WNW 6.9 mph - N/A   Scattered Clouds